Home   Weather   Winnipeg   Past weeks

Flag for Canada Past Weather in Winnipeg, Manitoba, Canada — Yesterday and Last 2 Weeks

Now
66 °F

Mild.


Feels Like: 66 °F
Forecast: 49 / 66 °F
Wind: 1 mph from North

Location: Winnipeg The Forks Man

Current Time: Sep 25, 2016 at 2:11:38 AM

Latest Report: Sep 25, 2016 at 1:00 AM


Visibility: N/A

Pressure: 29.70 "Hg

Humidity: 90%

Dew Point: 63 °F

Location of WinnipegLocation

Past Weather in Winnipeg — Graph

°F

Winnipeg Temperature Yesterday

Maximum temperature yesterday: 69 °F (at 8:00 PM)
Minimum temperature yesterday: 56 °F (at 3:00 AM)
Average temperature yesterday: 61 °F

High & Low Weather Summary for the Past Weeks

 TemperatureHumidityPressure
High76 °F (Sep 11, 5:00 PM)100% (Sep 16, 8:00 AM)30.29 "Hg (Sep 16, 8:00 AM)
Low41 °F (Sep 14, 5:00 AM)32% (Sep 19, 4:00 PM)29.45 "Hg (Sep 18, 6:00 PM)
Average58 °F66%29.95 "Hg
* Reported Sep 10 1:00 AM — Sep 25 1:00 AM, Winnipeg, Weather by CustomWeather, © 2016

Note: Actual official high and low records may vary slightly from our data, if they occured in-between our weather recording intervals... More about our weather records

Advertising

Winnipeg Weather History for the Previous 24 Hours

Scroll right to see more
 ConditionsComfort  
Time TempWeatherWind HumidityBarometerVisibility
1:00 AM
Sun, Sep 25
66 °FMild.1 mph90%29.70 "HgN/A
12:00 AM64 °FMild.2 mph97%29.71 "HgN/A
11:00 PM
Sat, Sep 24
65 °FMild.2 mph90%29.72 "HgN/A
10:00 PM65 °FMild.2 mph91%29.75 "HgN/A
9:00 PM65 °FMild.3 mph90%29.77 "HgN/A
8:00 PM69 °FMild.3 mph81%29.78 "HgN/A
6:00 PM69 °FMild.5 mph82%29.77 "HgN/A
5:00 PM68 °FMild.6 mph74%29.80 "HgN/A
4:00 PM66 °FMild.6 mph83%29.83 "HgN/A
3:00 PM65 °FMild.6 mph85%29.85 "HgN/A
2:00 PM63 °FMild.6 mph91%29.87 "HgN/A
1:00 PM60 °FCool.5 mph95%29.89 "HgN/A
12:00 PM60 °FCool.5 mph89%29.90 "HgN/A
11:00 AM59 °FCool.6 mph94%29.91 "HgN/A
10:00 AM58 °FCool.6 mph91%29.93 "HgN/A
9:00 AM58 °FCool.6 mph90%29.93 "HgN/A
8:00 AM58 °FCool.5 mph88%29.93 "HgN/A
7:00 AM57 °FCool.3 mph88%29.94 "HgN/A
6:00 AM57 °FCool.5 mph88%29.93 "HgN/A
5:00 AM56 °FCool.3 mph90%29.96 "HgN/A
4:00 AM56 °FCool.6 mph91%29.96 "HgN/A
3:00 AM56 °FCool.3 mph89%30.00 "HgN/A
2:00 AM58 °FCool.1 mph72%30.02 "HgN/A
Weather by CustomWeather, © 2016

See weather overviewHow to use our weather pages